Location: Washington
(38.8950°N, 77.0367°W)
Time: 06:17:53
(UTC-05:00)

N. Korean satellite - Visible Passes

Search period start: 22 February 2017 00:00
Search period end: 04 March 2017 00:00
Orbit: 463 x 518 km, 97.2° (Epoch: 21 February)

Date Brightness Start Highest point End Pass type
(mag) Time Alt. Az. Time Alt. Az. Time Alt. Az.
22 Feb 7.3 18:44:44 10° S 18:48:28 60° W 18:52:13 10° NNW visible
23 Feb 10.4 06:15:40 10° ENE 06:17:11 12° E 06:18:42 10° ESE visible
23 Feb 6.6 18:22:18 10° SSE 18:26:04 68° ENE 18:29:50 10° N visible
24 Feb 10.0 19:35:17 10° SW 19:37:24 14° W 19:39:32 10° WNW visible
25 Feb 9.1 19:11:38 10° SSW 19:14:51 27° W 19:18:06 10° NW visible
26 Feb 7.6 18:48:41 10° S 18:52:21 52° W 18:56:04 10° NNW visible
27 Feb 6.6 18:26:10 10° SSE 18:29:56 77° ENE 18:33:43 10° N visible
28 Feb 10.1 19:39:34 10° WSW 19:41:18 13° W 19:43:02 10° WNW visible
01 Mar 9.3 19:15:38 10° SSW 19:18:43 24° W 19:21:48 10° NW visible
02 Mar 7.9 18:52:35 10° S 18:56:12 45° W 18:59:50 10° NNW visible
03 Mar 6.7 18:30:00 10° SSE 18:33:45 88° E 18:37:32 10° N visible
